Temperature
8 8 8 8 8 9 8 8 9 9 10 10 9 9 10 11 11 11 12 14 14 15 16 16 16 17 17 17 17 17 17 17 17 17 17 17 17 17 16 16 16 16 15 15
7 8 8 8 8 9 8 8 8 9 9 10 8 8 9 9 10 11 12 12 14 14 15 15 16 16 16 16 16 17 17 17 17 17 17 17 17 17 17 17 16 16 16 15
8 8 9 9 8 9 8 8 8 9 9 8 8 9 9 9 9 10 11 11 12 13 14 15 15 16 16 16 16 16 16 16 16 17 16 16 16 16 16 16 16 16 16 16
7 8 8 8 8 8 8 9 9 9 8 7 7 8 9 9 8 9 9 10 11 12 13 14 14 15 15 15 16 16 16 16 16 16 16 16 16 15 16 16 16 16 16 16
7 8 8 8 8 8 8 8 7 7 7 7 6 7 8 8 10 9 9 9 10 11 12 13 13 14 14 15 15 15 15 16 16 16 16 16 16 16 16 16 16 16 16 16
7 8 8 8 8 8 7 6 6 5 5 6 6 6 8 8 9 9 8 9 10 11 12 12 13 13 14 14 14 14 15 15 15 15 15 15 15 15 15 15 15 15 15 15
7 7 7 8 7 7 7 6 6 6 5 5 5 5 6 8 8 8 8 9 10 11 11 12 12 12 13 13 13 14 14 14 14 15 15 15 15 15 15 15 15 15 15 15
6 6 7 7 7 6 7 7 6 7 6 5 5 5 6 7 8 9 9 9 10 10 11 11 11 11 11 12 12 12 13 13 13 14 14 14 14 14 14 14 14 14 15 15
6 6 7 7 7 7 6 6 6 4 4 5 5 5 6 8 8 8 9 9 10 10 10 10 10 10 10 10 11 11 11 12 12 13 13 13 13 13 14 14 14 13 13 14
6 5 6 7 7 6 6 5 4 4 5 7 7 6 7 9 9 8 7 8 9 10 9 9 9 9 9 9 10 10 10 10 11 11 12 12 13 13 13 13 13 13 12 12
6 5 6 7 6 6 5 5 4 3 4 5 7 8 8 8 9 8 7 8 9 9 8 8 8 8 8 8 8 9 9 10 10 10 10 11 11 12 11 12 12 11 11 11
6 5 5 5 6 6 6 5 4 4 4 3 4 6 8 8 8 7 8 8 8 8 8 7 7 7 8 8 8 8 8 8 9 9 10 10 10 10 10 11 11 10 9 9
6 4 4 5 5 5 6 5 4 4 3 2 4 6 7 7 7 8 8 8 8 7 7 7 7 7 7 7 7 7 7 7 8 8 8 9 9 9 9 9 9 8 8 8
6 4 5 5 5 4 5 4 4 4 3 3 3 5 6 7 7 7 8 7 7 6 6 5 6 6 6 6 6 6 6 6 7 7 7 7 7 7 7 7 7 7 7 7
6 5 5 5 5 5 5 5 4 4 4 4 4 4 6 7 7 7 7 6 6 5 5 4 4 5 5 5 5 5 5 5 6 6 6 6 6 6 6 6 6 6 6 6
5 5 5 5 6 5 5 5 5 5 5 5 5 5 7 7 8 7 7 5 4 4 3 3 3 4 4 4 4 4 4 4 5 5 5 5 5 5 4 4 4 4 4 3
5 5 5 5 5 6 5 5 5 5 5 5 6 6 7 7 7 7 6 5 4 3 3 2 2 3 3 3 3 3 3 3 3 4 3 3 3 3 3 3 2 2 2 1
5 5 4 5 6 5 7 8 6 6 6 6 6 7 7 8 7 6 6 4 3 3 2 2 2 2 2 2 2 2 2 2 2 2 2 2 2 2 1 1 1 0 0 0
5 5 5 5 5 5 7 7 6 6 7 7 7 7 8 7 6 5 5 4 3 2 1 1 1 1 1 1 1 1 1 1 1 1 0 0 0 0 0 -0 -0 -0 -0 -0
5 5 5 5 5 5 7 8 8 8 8 9 8 7 7 6 6 5 4 3 2 1 1 1 1 0 0 0 0 0 0 0 -0 -0 -0 -0 -0 -0 -0 -0 -1 -1 -0 -0
5 5 5 5 5 5 6 8 8 8 8 9 9 8 7 6 6 5 4 3 2 1 1 0 0 0 -0 -0 -0 -0 -0 -1 -1 -1 -1 -1 -1 -1 -1 -1 -1 -1 -0 -1
5 5 5 5 5 5 7 7 7 8 9 9 8 8 7 6 6 4 4 3 2 1 0 -0 -0 -0 -1 -1 -1 -1 -1 -1 -1 -1 -1 -1 -1 -0 -1 -1 -1 -1 -1 -1
5 5 5 5 6 7 8 8 9 9 8 8 8 8 7 6 5 4 3 3 2 1 0 -0 -0 -1 -1 -1 -1 -1 -1 -1 -1 -1 -1 -1 -0 -0 -1 -1 -1 -1 -2 -2
5 5 5 5 5 7 8 9 9 9 8 8 8 7 7 6 5 4 3 3 2 1 1 -0 -0 -0 -1 -0 -0 -0 -0 -0 -0 -0 -0 -1 -0 -1 -1 -1 -1 -2 -2 -2
5 5 5 5 6 7 8 8 8 8 8 8 7 7 6 6 5 4 4 3 2 2 1 1 0 0 0 0 0 0 0 -0 -0 -0 -0 -0 -1 -1 -1 -1 -2 -2 -2 -3
4 4 5 6 6 6 7 8 8 7 7 7 7 7 6 5 5 4 4 3 3 2 2 1 1 1 1 0 0 0 0 -0 -0 -0 -0 -1 -1 -1 -2 -2 -2 -3 -3 -3
Wind_Speed
6 6 10 12 9 4 7 6 4 3 2 2 6 9 13 10 8 10 11 10 10 10 9 8 8 8 7 7 9 10 11 12 11 10 12 13 14 13 12 13 16 18 18 19
6 8 8 8 8 5 5 4 3 1 3 3 5 10 12 9 8 9 9 10 10 9 8 7 6 6 6 6 7 8 10 10 11 11 11 10 11 10 12 10 11 16 17 18
6 4 9 9 8 8 4 5 4 2 3 4 6 9 7 4 3 5 5 6 7 8 9 7 5 5 5 5 6 7 8 9 10 11 8 5 5 4 7 9 11 13 17 18
3 2 8 9 8 8 6 4 5 3 2 3 4 5 8 5 6 4 6 6 6 6 5 5 5 5 4 5 5 6 7 8 8 9 9 11 12 13 13 12 13 13 15 16
4 4 8 8 7 7 5 5 5 4 4 1 1 2 9 5 4 5 6 6 7 6 5 5 5 5 5 4 4 4 5 6 6 7 10 12 13 13 9 8 10 12 12 13
3 2 4 5 5 8 9 7 7 5 4 2 4 5 7 3 3 6 6 7 8 8 7 7 7 7 7 7 6 5 5 5 5 6 8 11 14 13 10 10 12 11 8 9
3 3 3 4 7 5 5 6 3 2 1 5 2 3 9 6 5 5 5 5 6 8 8 10 11 11 11 11 9 8 7 7 6 6 7 10 13 13 14 13 13 12 10 9
6 4 2 2 5 6 5 6 6 5 4 3 2 6 8 6 6 3 1 2 5 7 7 8 9 9 10 11 11 10 9 9 8 7 7 8 9 9 9 11 10 11 10 10
6 3 2 3 4 8 6 4 4 5 2 2 5 6 8 3 1 2 4 6 8 8 8 9 9 9 9 10 11 10 10 10 9 8 7 7 7 8 8 8 8 6 6 6
6 6 3 3 6 6 5 8 5 5 4 3 5 5 4 2 1 4 6 8 9 9 9 10 9 9 9 9 10 10 9 9 9 8 6 5 5 6 6 5 6 6 7 8
5 6 4 3 4 6 5 4 5 4 3 4 2 5 5 5 2 3 6 8 8 8 9 9 9 9 10 10 9 10 10 9 8 7 6 4 3 2 3 4 6 7 8 11
4 5 4 2 2 4 5 6 6 5 4 3 2 7 4 4 2 3 7 8 8 7 8 8 9 9 9 10 10 10 9 8 8 6 4 2 1 2 4 5 7 9 11 11
5 6 5 2 2 1 3 5 5 5 5 5 3 7 3 2 5 6 6 8 7 8 8 8 8 9 9 9 9 9 9 8 6 5 5 5 5 6 7 8 9 10 11 12
5 4 5 7 5 6 5 6 7 6 5 5 7 8 9 9 10 10 8 7 6 6 7 8 8 8 8 8 8 8 8 7 6 6 6 7 7 8 9 9 10 11 12 13
5 4 2 2 2 5 5 7 10 8 8 8 7 7 11 10 10 9 6 5 6 6 7 8 8 8 8 8 8 8 8 8 7 8 9 9 9 10 11 12 12 13 13 14
4 4 2 1 1 4 5 8 11 10 9 10 9 11 13 9 5 6 5 5 6 6 7 7 7 7 7 7 7 7 7 8 8 10 11 11 12 13 13 13 14 14 14 14
3 4 2 1 2 0 6 10 13 8 7 9 12 12 9 9 9 6 4 3 4 5 5 6 6 5 6 5 5 6 6 7 9 10 11 11 12 13 14 14 14 14 14 14
6 4 2 0 1 5 6 2 8 9 8 10 9 9 8 8 6 3 2 2 2 3 3 4 4 4 4 5 5 6 7 8 10 10 11 11 12 13 13 14 13 12 11 12
5 4 2 1 2 6 7 3 6 6 6 8 12 13 9 4 3 3 2 2 1 1 2 2 3 4 5 5 6 7 8 8 9 9 9 10 11 12 12 12 12 10 11 10
4 4 2 2 2 5 4 1 3 4 2 3 6 8 6 1 3 3 4 4 3 3 3 4 5 6 6 6 6 8 8 9 9 9 9 9 10 11 11 11 10 9 9 9
4 3 3 3 4 7 7 3 3 2 2 2 3 5 4 5 4 3 6 4 4 4 5 5 6 6 5 5 7 9 8 9 8 8 9 10 10 10 10 10 9 9 9 9
7 5 6 5 5 7 3 4 5 4 2 2 3 3 3 3 4 6 6 6 5 5 5 5 6 6 5 6 7 8 8 6 7 8 9 9 9 8 8 9 9 8 8 8
7 7 5 7 7 5 3 5 5 3 4 4 3 2 3 4 6 7 6 6 6 6 5 5 6 6 5 5 6 8 6 6 8 9 9 9 9 8 8 8 7 6 6 5
4 4 4 5 7 7 7 6 5 4 4 3 3 3 4 5 7 8 8 7 7 6 6 5 6 6 5 5 6 6 6 7 8 9 8 7 8 8 7 6 5 5 5 5
4 5 4 5 6 7 5 3 3 2 2 2 2 3 5 6 7 8 8 8 8 7 6 6 6 7 6 6 6 6 6 7 8 8 7 7 7 7 7 6 5 5 3 4
3 5 5 5 4 3 5 4 3 3 3 3 2 2 3 6 8 9 9 8 8 8 7 7 7 7 7 6 6 6 6 7 8 7 6 5 5 5 5 5 5 8 7 8
Wind_Direction
156 168 189 190 181 153 151 154 183 228 312 303 263 273 275 272 262 261 265 267 267 264 262 255 249 249 241 235 229 226 221 219 210 204 208 211 216 215 214 214 211 206 201 196
150 204 186 154 158 142 134 144 171 293 359 353 303 281 271 262 248 246 257 267 271 276 283 273 258 250 238 234 230 230 227 224 213 209 209 210 213 216 216 213 208 205 202 197
167 168 155 153 162 169 176 163 169 192 356 35 337 300 289 306 309 299 290 284 288 283 289 296 291 272 261 248 238 236 231 229 222 216 208 199 195 201 204 208 210 207 202 200
164 151 152 159 172 163 192 172 150 131 70 331 19 316 296 321 329 344 342 340 326 317 307 306 310 302 283 268 260 249 245 239 232 219 208 204 209 215 215 213 213 206 201 200
169 151 154 170 166 141 137 107 102 100 114 343 342 221 287 338 354 349 343 347 343 340 342 340 336 325 322 316 307 287 273 261 250 231 218 214 220 223 219 210 207 205 201 199
100 110 132 139 119 125 122 87 70 56 71 270 220 190 280 287 281 309 325 343 354 4 13 9 3 2 356 350 342 328 309 286 270 248 232 223 224 222 213 208 209 206 199 196
101 74 72 104 102 96 114 110 79 14 1 247 188 206 251 263 272 274 298 336 358 10 13 9 4 359 353 348 342 334 322 304 292 269 248 235 231 225 219 214 213 206 200 200
139 148 152 111 134 148 152 143 161 190 215 268 183 235 255 267 287 279 280 339 2 7 6 2 353 346 339 335 333 330 321 307 298 284 267 254 241 230 227 219 213 209 208 203
136 113 74 91 106 126 128 130 132 123 112 278 259 271 299 265 340 360 2 3 357 355 354 348 341 336 330 326 322 319 314 307 301 290 276 262 248 233 226 216 205 198 189 170
117 112 110 112 84 48 127 136 114 133 162 253 288 268 242 228 321 354 354 347 340 344 344 341 336 330 326 319 315 315 312 304 300 296 281 268 252 237 219 195 185 171 153 141
98 113 116 110 147 153 118 112 111 113 150 168 267 280 222 200 206 329 323 322 326 329 330 330 328 324 321 322 322 322 321 317 312 304 292 278 265 226 175 164 158 145 136 138
105 107 113 89 354 163 144 154 146 150 188 169 196 270 283 219 252 298 307 314 324 327 326 326 326 327 330 332 333 333 330 328 324 322 324 326 28 109 119 122 123 126 129 132
119 109 109 72 356 145 158 160 150 126 120 155 192 266 309 320 312 306 309 316 326 330 332 336 338 339 340 341 341 344 346 344 349 8 27 43 63 84 96 106 114 119 122 122
106 106 152 179 202 171 183 179 161 139 159 195 229 261 292 300 308 313 316 316 324 326 333 340 339 339 342 345 349 356 358 359 13 39 56 63 69 83 93 97 101 106 111 112
92 110 144 183 162 159 183 184 182 190 189 199 233 241 269 280 289 296 299 314 324 330 342 345 340 341 348 355 1 6 11 17 35 55 63 67 74 81 85 89 93 96 100 103
84 113 110 7 197 196 220 210 200 210 215 232 257 275 266 271 276 283 293 310 317 329 339 341 344 353 360 2 7 15 23 31 49 63 68 72 79 82 83 86 91 94 96 98
104 120 112 319 319 132 257 220 198 199 205 202 232 246 269 286 288 287 289 295 305 323 333 342 349 358 6 10 20 31 39 47 60 68 73 77 82 85 88 90 90 92 94 96
126 118 123 109 35 246 247 205 182 200 225 212 230 251 265 268 281 273 228 245 289 319 334 349 360 17 25 33 46 54 57 63 69 73 77 83 88 91 92 92 92 92 92 92
128 134 138 153 272 284 295 238 168 179 252 224 230 253 265 278 302 260 167 139 136 13 25 29 39 54 53 54 61 68 67 68 71 74 78 85 93 96 95 94 93 92 93 90
96 108 134 171 247 253 259 310 168 140 271 233 210 243 257 228 290 262 143 121 102 82 74 70 67 68 65 61 71 75 71 71 71 74 79 83 87 92 92 92 91 89 91 90
153 164 190 208 244 266 255 253 145 166 226 287 241 250 235 215 226 144 134 127 117 103 93 87 80 74 70 75 83 82 77 74 76 81 81 81 84 88 91 90 88 90 90 89
180 186 194 187 216 255 251 150 180 222 266 285 275 255 229 206 137 137 143 141 132 117 107 101 94 83 73 81 94 92 84 82 83 85 83 80 79 84 88 90 87 86 92 93
197 196 192 201 221 243 235 217 244 236 257 263 251 243 201 186 175 162 156 152 144 134 126 116 109 98 83 82 99 103 95 94 92 87 84 82 79 76 80 87 91 87 86 92
238 186 197 249 263 265 268 263 260 243 242 254 242 232 195 196 177 165 158 155 148 142 137 130 121 111 100 94 97 103 105 104 98 93 89 86 85 79 71 72 77 86 88 90
232 180 205 250 277 298 294 270 279 278 261 260 256 218 207 188 174 167 163 161 157 150 143 139 134 126 121 114 108 108 111 111 104 98 92 87 84 86 78 74 78 88 84 116
211 187 194 232 250 254 286 316 324 288 281 263 250 236 201 184 173 164 162 160 157 152 146 141 137 133 130 125 119 116 115 116 114 107 98 94 92 89 88 84 71 74 80 79
Height
1458 1463 1465 1467 1470 1473 1478 1481 1483 1482 1480 1481 1480 1479 1472 1469 1470 1469 1468 1468 1468 1469 1471 1473 1475 1476 1478 1479 1481 1483 1485 1487 1489 1491 1492 1494 1496 1498 1501 1503 1506 1508 1510 1513
1459 1461 1461 1465 1470 1473 1477 1481 1483 1482 1480 1481 1481 1477 1468 1464 1464 1463 1463 1463 1463 1464 1465 1466 1468 1469 1471 1473 1474 1476 1478 1480 1482 1484 1486 1487 1489 1491 1494 1497 1499 1502 1505 1507
1454 1458 1460 1464 1469 1473 1476 1480 1482 1482 1482 1484 1483 1474 1467 1462 1461 1460 1460 1460 1460 1459 1459 1460 1461 1463 1464 1466 1468 1470 1472 1474 1476 1477 1479 1480 1482 1484 1486 1489 1491 1494 1498 1500
1456 1457 1459 1463 1467 1471 1476 1477 1479 1482 1486 1490 1489 1487 1470 1466 1463 1460 1460 1459 1457 1457 1456 1457 1457 1458 1459 1461 1462 1464 1466 1467 1469 1471 1472 1473 1474 1475 1477 1481 1484 1487 1490 1492
1456 1457 1459 1463 1466 1469 1475 1477 1481 1485 1488 1492 1492 1490 1474 1468 1463 1462 1460 1459 1457 1455 1455 1455 1455 1455 1456 1457 1458 1459 1460 1462 1463 1464 1465 1466 1467 1468 1471 1473 1476 1479 1481 1484
1456 1458 1459 1462 1466 1469 1475 1482 1488 1493 1493 1494 1491 1492 1479 1471 1465 1463 1461 1459 1456 1455 1454 1454 1454 1454 1454 1455 1455 1455 1456 1457 1457 1458 1458 1459 1460 1461 1463 1464 1467 1470 1472 1475
1459 1460 1461 1463 1468 1473 1475 1483 1491 1494 1501 1496 1493 1493 1480 1467 1464 1463 1461 1459 1457 1455 1454 1454 1453 1452 1452 1452 1452 1452 1451 1451 1452 1452 1452 1452 1453 1454 1455 1456 1459 1461 1463 1466
1460 1464 1463 1464 1466 1472 1475 1479 1488 1491 1493 1494 1494 1492 1475 1465 1462 1461 1460 1459 1457 1455 1454 1453 1453 1451 1450 1449 1448 1447 1446 1446 1446 1446 1445 1446 1446 1447 1447 1449 1451 1453 1455 1458
1459 1465 1465 1464 1466 1470 1477 1481 1484 1494 1498 1497 1490 1484 1472 1462 1461 1460 1459 1457 1456 1454 1453 1452 1451 1449 1447 1446 1444 1442 1441 1440 1439 1439 1439 1439 1439 1440 1441 1442 1443 1445 1447 1450
1455 1466 1466 1466 1468 1472 1474 1481 1489 1495 1492 1484 1479 1479 1472 1463 1462 1460 1459 1457 1455 1453 1452 1450 1448 1446 1444 1442 1440 1438 1436 1434 1433 1432 1432 1432 1432 1433 1434 1435 1436 1438 1441 1443
1455 1464 1469 1468 1471 1474 1479 1483 1487 1494 1492 1491 1479 1471 1462 1461 1460 1460 1458 1456 1455 1453 1451 1448 1446 1443 1441 1438 1435 1433 1430 1428 1427 1426 1425 1425 1426 1426 1428 1429 1431 1433 1435 1438
1455 1464 1471 1473 1472 1471 1474 1479 1485 1490 1495 1497 1496 1480 1458 1459 1459 1459 1457 1455 1453 1451 1449 1446 1443 1440 1437 1434 1431 1428 1426 1423 1422 1421 1420 1420 1420 1421 1422 1424 1425 1428 1430 1433
1455 1465 1475 1477 1479 1475 1474 1477 1480 1485 1492 1499 1496 1476 1458 1458 1457 1456 1455 1453 1451 1449 1446 1443 1441 1438 1434 1431 1428 1426 1423 1420 1418 1417 1416 1416 1416 1417 1418 1420 1422 1424 1427 1430
1453 1464 1470 1472 1470 1472 1473 1475 1478 1483 1491 1493 1487 1475 1462 1458 1456 1454 1452 1451 1449 1447 1444 1441 1438 1436 1433 1430 1427 1424 1421 1419 1417 1415 1414 1413 1414 1415 1417 1418 1420 1423 1425 1428
1454 1463 1465 1465 1465 1467 1468 1471 1474 1477 1479 1483 1475 1473 1460 1456 1454 1452 1450 1448 1446 1444 1442 1439 1437 1434 1432 1429 1426 1424 1421 1419 1416 1415 1413 1413 1414 1415 1416 1418 1420 1422 1425 1427
1456 1463 1464 1465 1464 1466 1467 1467 1469 1470 1471 1471 1470 1465 1453 1451 1451 1449 1447 1446 1444 1442 1440 1438 1436 1433 1431 1429 1427 1425 1422 1420 1417 1415 1414 1414 1415 1415 1417 1418 1420 1422 1425 1428
1459 1462 1466 1467 1465 1463 1465 1458 1461 1463 1461 1462 1463 1457 1449 1449 1448 1446 1444 1443 1442 1441 1439 1437 1435 1433 1431 1430 1428 1426 1423 1421 1419 1418 1417 1417 1417 1417 1418 1420 1422 1425 1428 1431
1459 1463 1466 1465 1465 1467 1455 1447 1450 1453 1453 1453 1451 1449 1447 1446 1445 1443 1442 1441 1440 1439 1438 1436 1435 1433 1432 1431 1429 1427 1426 1424 1422 1421 1420 1420 1420 1421 1422 1424 1426 1429 1433 1435
1456 1461 1464 1465 1466 1462 1451 1445 1447 1451 1449 1445 1447 1445 1444 1443 1443 1440 1440 1439 1439 1438 1437 1436 1435 1434 1433 1432 1430 1429 1428 1427 1426 1425 1424 1424 1425 1426 1427 1429 1431 1434 1437 1440
1458 1460 1464 1463 1464 1463 1449 1443 1442 1446 1445 1441 1442 1442 1442 1442 1443 1440 1439 1438 1437 1437 1436 1435 1435 1434 1434 1433 1432 1432 1431 1430 1429 1429 1429 1430 1431 1431 1433 1435 1437 1439 1442 1444
1459 1460 1461 1461 1462 1457 1446 1442 1444 1449 1445 1441 1440 1439 1439 1439 1439 1438 1437 1437 1436 1436 1436 1436 1435 1435 1435 1435 1435 1434 1434 1433 1434 1434 1434 1435 1436 1437 1439 1440 1442 1444 1446 1447
1454 1456 1456 1457 1460 1457 1441 1442 1443 1442 1439 1438 1437 1437 1436 1435 1435 1435 1435 1435 1435 1435 1436 1436 1436 1436 1437 1437 1437 1437 1437 1437 1438 1439 1439 1440 1441 1443 1444 1445 1447 1448 1449 1450
1450 1450 1451 1451 1449 1441 1439 1439 1438 1438 1437 1436 1435 1434 1433 1433 1432 1433 1434 1434 1435 1435 1436 1436 1437 1438 1438 1438 1439 1439 1440 1441 1442 1443 1444 1445 1446 1447 1448 1449 1450 1451 1452 1452
1445 1444 1446 1446 1440 1437 1436 1436 1435 1435 1434 1433 1433 1432 1430 1430 1430 1431 1432 1433 1434 1435 1436 1437 1438 1439 1440 1441 1442 1443 1444 1445 1446 1447 1448 1449 1450 1451 1452 1452 1453 1453 1454 1454
1441 1442 1443 1441 1437 1435 1432 1433 1433 1432 1431 1430 1430 1429 1428 1427 1428 1429 1430 1431 1433 1435 1436 1437 1439 1440 1442 1443 1444 1446 1447 1449 1450 1451 1452 1453 1453 1454 1454 1455 1455 1455 1455 1455
1438 1439 1440 1438 1435 1435 1433 1432 1431 1430 1429 1428 1427 1426 1425 1425 1425 1426 1428 1430 1432 1434 1436 1438 1440 1442 1443 1445 1447 1448 1450 1451 1452 1453 1454 1455 1455 1456 1456 1456 1456 1455 1455 1454